Location: Unspecified
(51.0950°N, 12.9690°E)
Time: 17:28:40
(UTC+00:00)

Cosmos 1816 Rocket - Pass Details

Date: 28 October 2021
Orbit: 952 x 998 km, 82.9° (Epoch: 02 December)

Event Time Altitude Azimuth Distance (km) Brightness Sun altitude
Rises 18:14:24 0° 351° (N) 3,654 7.7 -23.3°
Reaches altitude 10° 18:16:55 10° 354° (N) 2,709 7.0 -23.7°
Maximum altitude 18:23:06 70° 78° (ENE) 1,030 4.3 -24.6°
Enters shadow 18:24:59 46° 145° (SE) 1,285 4.8 -24.9°
